Time,TemperatureF,DewpointF,PressureIn,WindDirection,WindDirectionDegrees,WindSpeedMPH,WindSpeedGustMPH,Humidity,HourlyPrecipIn,Conditions,Clouds,dailyrainin,SoftwareType,DateUTC
2014-01-22 00:01:00,37.1,13.9,29.53,North,-999,-999.0,0.0,38,0.00,,,0.00,LWC V2.10 B1813,2014-01-22 07:01:00,
2014-01-22 00:06:00,37.0,13.8,29.53,North,-999,-999.0,0.0,38,0.00,,,0.00,LWC V2.10 B1813,2014-01-22 07:06:00,
2014-01-22 00:11:00,36.9,14.3,29.53,North,-999,-999.0,0.0,39,0.00,,,0.00,LWC V2.10 B1813,2014-01-22 07:11:00,
2014-01-22 00:16:00,36.9,14.3,29.53,North,-999,-999.0,0.0,39,0.00,,,0.00,LWC V2.10 B1813,2014-01-22 07:16:00,
2014-01-22 00:21:00,36.7,14.1,29.53,North,-999,-999.0,0.0,39,0.00,,,0.00,LWC V2.10 B1813,2014-01-22 07:21:00,
2014-01-22 00:26:00,36.7,14.1,29.53,North,-999,-999.0,0.0,39,0.00,,,0.00,LWC V2.10 B1813,2014-01-22 07:26:00,
2014-01-22 00:31:00,36.6,14.6,29.53,North,-999,-999.0,0.0,40,0.00,,,0.00,LWC V2.10 B1813,2014-01-22 07:31:00,
2014-01-22 00:37:00,36.7,14.1,29.53,North,-999,-999.0,0.0,39,0.00,,,0.00,LWC V2.10 B1813,2014-01-22 07:37:00,
2014-01-22 00:42:00,36.5,13.9,29.53,North,-999,-999.0,0.0,39,0.00,,,0.00,LWC V2.10 B1813,2014-01-22 07:42:00,
2014-01-22 00:47:00,36.5,14.5,29.53,North,-999,-999.0,0.0,40,0.00,,,0.00,LWC V2.10 B1813,2014-01-22 07:47:00,
2014-01-22 00:52:00,36.4,14.4,29.53,North,-999,-999.0,0.0,40,0.00,,,0.00,LWC V2.10 B1813,2014-01-22 07:52:00,
2014-01-22 00:57:00,36.4,14.4,29.53,North,-999,-999.0,0.0,40,0.00,,,0.00,LWC V2.10 B1813,2014-01-22 07:57:00,
2014-01-22 01:02:00,36.3,14.3,29.53,North,-999,-999.0,0.0,40,0.00,,,0.00,LWC V2.10 B1813,2014-01-22 08:02:00,
2014-01-22 01:07:00,36.2,14.2,29.53,North,-999,-999.0,0.0,40,0.00,,,0.00,LWC V2.10 B1813,2014-01-22 08:07:00,
2014-01-22 01:12:00,36.2,14.2,29.53,North,-999,-999.0,0.0,40,0.00,,,0.00,LWC V2.10 B1813,2014-01-22 08:12:00,
2014-01-22 01:17:00,36.2,14.8,29.53,North,-999,-999.0,0.0,41,0.00,,,0.00,LWC V2.10 B1813,2014-01-22 08:17:00,
2014-01-22 01:22:00,36.2,14.2,29.53,North,-999,-999.0,0.0,40,0.00,,,0.00,LWC V2.10 B1813,2014-01-22 08:22:00,
2014-01-22 01:27:00,35.9,14.0,29.53,North,-999,-999.0,0.0,40,0.00,,,0.00,LWC V2.10 B1813,2014-01-22 08:27:00,
2014-01-22 01:32:00,35.9,14.0,29.53,North,-999,-999.0,0.0,40,0.00,,,0.00,LWC V2.10 B1813,2014-01-22 08:32:00,
2014-01-22 01:37:00,35.8,13.9,29.53,North,-999,-999.0,0.0,40,0.00,,,0.00,LWC V2.10 B1813,2014-01-22 08:37:00,
2014-01-22 01:42:00,35.7,13.8,29.53,North,-999,-999.0,0.0,40,0.00,,,0.00,LWC V2.10 B1813,2014-01-22 08:42:00,
2014-01-22 01:47:00,35.6,14.2,29.53,North,-999,-999.0,0.0,41,0.00,,,0.00,LWC V2.10 B1813,2014-01-22 08:47:00,
2014-01-22 01:52:00,35.4,14.1,29.53,North,-999,-999.0,0.0,41,0.00,,,0.00,LWC V2.10 B1813,2014-01-22 08:52:00,
2014-01-22 01:57:00,35.3,14.0,29.53,North,-999,-999.0,0.0,41,0.00,,,0.00,LWC V2.10 B1813,2014-01-22 08:57:00,
2014-01-22 02:02:00,35.2,13.9,29.53,North,-999,-999.0,0.0,41,0.00,,,0.00,LWC V2.10 B1813,2014-01-22 09:02:00,
2014-01-22 02:07:00,35.1,14.3,29.53,North,-999,-999.0,0.0,42,0.00,,,0.00,LWC V2.10 B1813,2014-01-22 09:07:00,
2014-01-22 02:12:00,35.0,14.3,29.53,North,-999,-999.0,0.0,42,0.00,,,0.00,LWC V2.10 B1813,2014-01-22 09:12:00,
2014-01-22 02:17:00,34.9,14.2,29.53,North,-999,-999.0,0.0,42,0.00,,,0.00,LWC V2.10 B1813,2014-01-22 09:17:00,
2014-01-22 02:22:00,35.0,14.8,29.53,North,-999,-999.0,0.0,43,0.00,,,0.00,LWC V2.10 B1813,2014-01-22 09:22:00,
2014-01-22 02:27:00,35.0,14.8,29.53,North,-999,-999.0,0.0,43,0.00,,,0.00,LWC V2.10 B1813,2014-01-22 09:27:00,
2014-01-22 02:32:00,34.8,14.6,29.53,North,-999,-999.0,0.0,43,0.00,,,0.00,LWC V2.10 B1813,2014-01-22 09:32:00,
2014-01-22 02:37:00,34.7,14.5,29.53,North,-999,-999.0,0.0,43,0.00,,,0.00,LWC V2.10 B1813,2014-01-22 09:37:00,
2014-01-22 02:42:00,34.6,14.4,29.53,North,-999,-999.0,0.0,43,0.00,,,0.00,LWC V2.10 B1813,2014-01-22 09:42:00,
2014-01-22 02:47:00,34.6,14.4,29.53,North,-999,-999.0,0.0,43,0.00,,,0.00,LWC V2.10 B1813,2014-01-22 09:47:00,
2014-01-22 02:52:00,34.6,14.4,29.53,North,-999,-999.0,0.0,43,0.00,,,0.00,LWC V2.10 B1813,2014-01-22 09:52:00,
2014-01-22 02:57:00,34.6,13.9,29.53,North,-999,-999.0,0.0,42,0.00,,,0.00,LWC V2.10 B1813,2014-01-22 09:57:00,
2014-01-22 03:02:00,34.6,13.9,29.53,North,-999,-999.0,0.0,42,0.00,,,0.00,LWC V2.10 B1813,2014-01-22 10:02:00,
2014-01-22 03:07:00,34.6,13.9,29.53,North,-999,-999.0,0.0,42,0.00,,,0.00,LWC V2.10 B1813,2014-01-22 10:07:00,
2014-01-22 03:12:00,34.7,14.0,29.53,North,-999,-999.0,0.0,42,0.00,,,0.00,LWC V2.10 B1813,2014-01-22 10:12:00,
2014-01-22 03:17:00,34.7,14.0,29.53,North,-999,-999.0,0.0,42,0.00,,,0.00,LWC V2.10 B1813,2014-01-22 10:17:00,
2014-01-22 03:22:00,34.6,13.3,29.53,North,-999,-999.0,0.0,41,0.00,,,0.00,LWC V2.10 B1813,2014-01-22 10:22:00,
2014-01-22 03:27:00,34.6,13.9,29.53,North,-999,-999.0,0.0,42,0.00,,,0.00,LWC V2.10 B1813,2014-01-22 10:27:00,
2014-01-22 03:32:00,34.5,13.3,29.53,North,-999,-999.0,0.0,41,0.00,,,0.00,LWC V2.10 B1813,2014-01-22 10:32:00,
2014-01-22 03:37:00,34.4,13.2,29.53,North,-999,-999.0,0.0,41,0.00,,,0.00,LWC V2.10 B1813,2014-01-22 10:37:00,
2014-01-22 03:42:00,34.3,13.1,29.53,North,-999,-999.0,0.0,41,0.00,,,0.00,LWC V2.10 B1813,2014-01-22 10:42:00,
2014-01-22 03:47:00,34.3,13.1,29.53,North,-999,-999.0,0.0,41,0.00,,,0.00,LWC V2.10 B1813,2014-01-22 10:47:00,
2014-01-22 03:52:00,34.2,12.4,29.53,North,-999,-999.0,0.0,40,0.00,,,0.00,LWC V2.10 B1813,2014-01-22 10:52:00,
2014-01-22 03:57:00,34.1,12.3,29.53,North,-999,-999.0,0.0,40,0.00,,,0.00,LWC V2.10 B1813,2014-01-22 10:57:00,
2014-01-22 04:02:00,34.1,11.8,29.53,North,-999,-999.0,0.0,39,0.00,,,0.00,LWC V2.10 B1813,2014-01-22 11:02:00,
2014-01-22 04:07:00,33.9,12.2,29.53,North,-999,-999.0,0.0,40,0.00,,,0.00,LWC V2.10 B1813,2014-01-22 11:07:00,
2014-01-22 04:12:00,33.8,12.1,29.53,North,-999,-999.0,0.0,40,0.00,,,0.00,LWC V2.10 B1813,2014-01-22 11:12:00,
2014-01-22 04:17:00,33.7,12.0,29.53,North,-999,-999.0,0.0,40,0.00,,,0.00,LWC V2.10 B1813,2014-01-22 11:17:00,
2014-01-22 04:22:00,33.7,12.0,29.53,North,-999,-999.0,0.0,40,0.00,,,0.00,LWC V2.10 B1813,2014-01-22 11:22:00,
2014-01-22 04:27:00,33.7,12.5,29.53,North,-999,-999.0,0.0,41,0.00,,,0.00,LWC V2.10 B1813,2014-01-22 11:27:00,
2014-01-22 04:32:00,33.7,12.0,29.53,North,-999,-999.0,0.0,40,0.00,,,0.00,LWC V2.10 B1813,2014-01-22 11:32:00,
2014-01-22 04:37:00,33.6,12.4,29.53,North,-999,-999.0,0.0,41,0.00,,,0.00,LWC V2.10 B1813,2014-01-22 11:37:00,
2014-01-22 04:42:00,33.6,12.4,29.53,North,-999,-999.0,0.0,41,0.00,,,0.00,LWC V2.10 B1813,2014-01-22 11:42:00,
2014-01-22 04:47:00,33.7,12.5,29.53,North,-999,-999.0,0.0,41,0.00,,,0.00,LWC V2.10 B1813,2014-01-22 11:47:00,
2014-01-22 04:52:00,33.7,13.1,29.53,North,-999,-999.0,0.0,42,0.00,,,0.00,LWC V2.10 B1813,2014-01-22 11:52:00,
2014-01-22 04:57:00,33.7,12.5,29.53,North,-999,-999.0,0.0,41,0.00,,,0.00,LWC V2.10 B1813,2014-01-22 11:57:00,
2014-01-22 05:02:00,33.6,12.4,29.53,North,-999,-999.0,0.0,41,0.00,,,0.00,LWC V2.10 B1813,2014-01-22 12:02:00,
2014-01-22 05:07:00,33.5,12.9,29.53,North,-999,-999.0,0.0,42,0.00,,,0.00,LWC V2.10 B1813,2014-01-22 12:07:00,
2014-01-22 05:12:00,33.3,12.2,29.53,North,-999,-999.0,0.0,41,0.00,,,0.00,LWC V2.10 B1813,2014-01-22 12:12:00,
2014-01-22 05:17:00,33.2,12.1,29.53,North,-999,-999.0,0.0,41,0.00,,,0.00,LWC V2.10 B1813,2014-01-22 12:17:00,
2014-01-22 05:22:00,33.1,11.4,29.53,North,-999,-999.0,0.0,40,0.00,,,0.00,LWC V2.10 B1813,2014-01-22 12:22:00,
2014-01-22 05:27:00,33.0,11.9,29.53,North,-999,-999.0,0.0,41,0.00,,,0.00,LWC V2.10 B1813,2014-01-22 12:27:00,
2014-01-22 05:32:00,33.0,11.3,29.53,North,-999,-999.0,0.0,40,0.00,,,0.00,LWC V2.10 B1813,2014-01-22 12:32:00,
2014-01-22 05:37:00,32.8,11.2,29.53,North,-999,-999.0,0.0,40,0.00,,,0.00,LWC V2.10 B1813,2014-01-22 12:37:00,
2014-01-22 05:42:00,32.7,11.1,29.53,North,-999,-999.0,0.0,40,0.00,,,0.00,LWC V2.10 B1813,2014-01-22 12:42:00,
2014-01-22 05:47:00,32.9,11.3,29.53,North,-999,-999.0,0.0,40,0.00,,,0.00,LWC V2.10 B1813,2014-01-22 12:47:00,
2014-01-22 05:52:00,33.0,11.3,29.53,North,-999,-999.0,0.0,40,0.00,,,0.00,LWC V2.10 B1813,2014-01-22 12:52:00,
2014-01-22 05:57:00,33.1,10.9,29.53,North,-999,-999.0,0.0,39,0.00,,,0.00,LWC V2.10 B1813,2014-01-22 12:57:00,
2014-01-22 06:02:00,33.1,10.9,29.53,North,-999,-999.0,0.0,39,0.00,,,0.00,LWC V2.10 B1813,2014-01-22 13:02:00,
2014-01-22 06:07:00,33.1,10.9,29.53,North,-999,-999.0,0.0,39,0.00,,,0.00,LWC V2.10 B1813,2014-01-22 13:07:00,
2014-01-22 06:12:00,33.0,10.8,29.53,North,-999,-999.0,0.0,39,0.00,,,0.00,LWC V2.10 B1813,2014-01-22 13:12:00,
2014-01-22 06:17:00,33.1,11.4,29.53,North,-999,-999.0,0.0,40,0.00,,,0.00,LWC V2.10 B1813,2014-01-22 13:17:00,
2014-01-22 06:22:00,33.0,11.3,29.53,North,-999,-999.0,0.0,40,0.00,,,0.00,LWC V2.10 B1813,2014-01-22 13:22:00,
2014-01-22 06:27:00,33.0,11.3,29.53,North,-999,-999.0,0.0,40,0.00,,,0.00,LWC V2.10 B1813,2014-01-22 13:27:00,
2014-01-22 06:32:00,33.0,11.3,29.53,North,-999,-999.0,0.0,40,0.00,,,0.00,LWC V2.10 B1813,2014-01-22 13:32:00,
2014-01-22 06:37:00,32.9,11.3,29.53,North,-999,-999.0,0.0,40,0.00,,,0.00,LWC V2.10 B1813,2014-01-22 13:37:00,
2014-01-22 06:42:00,33.0,11.3,29.53,North,-999,-999.0,0.0,40,0.00,,,0.00,LWC V2.10 B1813,2014-01-22 13:42:00,
2014-01-22 06:47:00,32.8,11.2,29.53,North,-999,-999.0,0.0,40,0.00,,,0.00,LWC V2.10 B1813,2014-01-22 13:47:00,
2014-01-22 06:52:00,33.0,11.9,29.53,North,-999,-999.0,0.0,41,0.00,,,0.00,LWC V2.10 B1813,2014-01-22 13:52:00,
2014-01-22 06:57:00,33.0,11.3,29.53,North,-999,-999.0,0.0,40,0.00,,,0.00,LWC V2.10 B1813,2014-01-22 13:57:00,
2014-01-22 07:02:00,33.0,11.9,29.53,North,-999,-999.0,0.0,41,0.00,,,0.00,LWC V2.10 B1813,2014-01-22 14:02:00,
2014-01-22 07:07:00,33.0,11.3,29.53,North,-999,-999.0,0.0,40,0.00,,,0.00,LWC V2.10 B1813,2014-01-22 14:07:00,
2014-01-22 07:12:00,32.9,11.8,29.53,North,-999,-999.0,0.0,41,0.00,,,0.00,LWC V2.10 B1813,2014-01-22 14:12:00,
2014-01-22 07:17:00,33.1,12.0,29.53,North,-999,-999.0,0.0,41,0.00,,,0.00,LWC V2.10 B1813,2014-01-22 14:17:00,
2014-01-22 07:22:00,33.2,11.5,29.53,North,-999,-999.0,0.0,40,0.00,,,0.00,LWC V2.10 B1813,2014-01-22 14:22:00,
2014-01-22 07:27:00,33.3,11.6,29.53,North,-999,-999.0,0.0,40,0.00,,,0.00,LWC V2.10 B1813,2014-01-22 14:27:00,
2014-01-22 07:32:00,33.3,11.6,29.53,North,-999,-999.0,0.0,40,0.00,,,0.00,LWC V2.10 B1813,2014-01-22 14:32:00,
2014-01-22 07:37:00,33.5,11.8,29.53,North,-999,-999.0,0.0,40,0.00,,,0.00,LWC V2.10 B1813,2014-01-22 14:37:00,
2014-01-22 07:42:00,33.5,11.8,29.53,North,-999,-999.0,0.0,40,0.00,,,0.00,LWC V2.10 B1813,2014-01-22 14:42:00,
2014-01-22 07:47:00,33.6,11.9,29.53,North,-999,-999.0,0.0,40,0.00,,,0.00,LWC V2.10 B1813,2014-01-22 14:47:00,
2014-01-22 07:52:00,33.7,12.0,29.53,North,-999,-999.0,0.0,40,0.00,,,0.00,LWC V2.10 B1813,2014-01-22 14:52:00,
2014-01-22 07:57:00,33.8,12.1,29.53,North,-999,-999.0,0.0,40,0.00,,,0.00,LWC V2.10 B1813,2014-01-22 14:57:00,
2014-01-22 08:02:00,34.0,11.7,29.53,North,-999,-999.0,0.0,39,0.00,,,0.00,LWC V2.10 B1813,2014-01-22 15:02:00,
2014-01-22 08:07:00,34.1,11.8,29.53,North,-999,-999.0,0.0,39,0.00,,,0.00,LWC V2.10 B1813,2014-01-22 15:07:00,
2014-01-22 08:12:00,34.3,11.9,29.53,North,-999,-999.0,0.0,39,0.00,,,0.00,LWC V2.10 B1813,2014-01-22 15:12:00,
2014-01-22 08:17:00,34.5,12.1,29.53,North,-999,-999.0,0.0,39,0.00,,,0.00,LWC V2.10 B1813,2014-01-22 15:17:00,
2014-01-22 08:22:00,34.7,12.3,29.53,North,-999,-999.0,0.0,39,0.00,,,0.00,LWC V2.10 B1813,2014-01-22 15:22:00,
2014-01-22 08:27:00,34.9,12.5,29.53,North,-999,-999.0,0.0,39,0.00,,,0.00,LWC V2.10 B1813,2014-01-22 15:27:00,
2014-01-22 08:32:00,35.1,12.1,29.53,North,-999,-999.0,0.0,38,0.00,,,0.00,LWC V2.10 B1813,2014-01-22 15:32:00,
2014-01-22 08:37:00,35.3,12.8,29.53,North,-999,-999.0,0.0,39,0.00,,,0.00,LWC V2.10 B1813,2014-01-22 15:37:00,
2014-01-22 08:42:00,35.4,12.3,29.53,North,-999,-999.0,0.0,38,0.00,,,0.00,LWC V2.10 B1813,2014-01-22 15:42:00,
2014-01-22 08:47:00,35.5,12.4,29.53,North,-999,-999.0,0.0,38,0.00,,,0.00,LWC V2.10 B1813,2014-01-22 15:47:00,
2014-01-22 08:52:00,35.6,12.5,29.53,North,-999,-999.0,0.0,38,0.00,,,0.00,LWC V2.10 B1813,2014-01-22 15:52:00,
2014-01-22 08:57:00,35.7,12.6,29.53,North,-999,-999.0,0.0,38,0.00,,,0.00,LWC V2.10 B1813,2014-01-22 15:57:00,
2014-01-22 09:02:00,35.9,12.8,29.53,North,-999,-999.0,0.0,38,0.00,,,0.00,LWC V2.10 B1813,2014-01-22 16:02:00,
2014-01-22 09:07:00,36.1,12.4,29.53,North,-999,-999.0,0.0,37,0.00,,,0.00,LWC V2.10 B1813,2014-01-22 16:07:00,
2014-01-22 09:12:00,36.3,12.6,29.53,North,-999,-999.0,0.0,37,0.00,,,0.00,LWC V2.10 B1813,2014-01-22 16:12:00,
2014-01-22 09:17:00,36.6,12.2,29.53,North,-999,-999.0,0.0,36,0.00,,,0.00,LWC V2.10 B1813,2014-01-22 16:17:00,
2014-01-22 09:22:00,36.8,12.4,29.53,North,-999,-999.0,0.0,36,0.00,,,0.00,LWC V2.10 B1813,2014-01-22 16:22:00,
2014-01-22 09:27:00,37.1,12.6,29.53,North,-999,-999.0,0.0,36,0.00,,,0.00,LWC V2.10 B1813,2014-01-22 16:27:00,
2014-01-22 09:32:00,37.3,12.2,29.53,North,-999,-999.0,0.0,35,0.00,,,0.00,LWC V2.10 B1813,2014-01-22 16:32:00,
2014-01-22 09:37:00,37.4,12.3,29.53,North,-999,-999.0,0.0,35,0.00,,,0.00,LWC V2.10 B1813,2014-01-22 16:37:00,
2014-01-22 09:42:00,37.4,12.3,29.53,North,-999,-999.0,0.0,35,0.00,,,0.00,LWC V2.10 B1813,2014-01-22 16:42:00,
2014-01-22 09:47:00,37.5,12.4,29.53,North,-999,-999.0,0.0,35,0.00,,,0.00,LWC V2.10 B1813,2014-01-22 16:47:00,
2014-01-22 09:52:00,37.6,12.5,29.53,North,-999,-999.0,0.0,35,0.00,,,0.00,LWC V2.10 B1813,2014-01-22 16:52:00,
2014-01-22 09:57:00,37.7,11.9,29.53,North,-999,-999.0,0.0,34,0.00,,,0.00,LWC V2.10 B1813,2014-01-22 16:57:00,
2014-01-22 10:02:00,37.8,12.6,29.53,North,-999,-999.0,0.0,35,0.00,,,0.00,LWC V2.10 B1813,2014-01-22 17:02:00,
2014-01-22 10:07:00,38.0,12.2,29.53,North,-999,-999.0,0.0,34,0.00,,,0.00,LWC V2.10 B1813,2014-01-22 17:07:00,
2014-01-22 10:12:00,38.1,12.9,29.53,North,-999,-999.0,0.0,35,0.00,,,0.00,LWC V2.10 B1813,2014-01-22 17:12:00,
2014-01-22 10:17:00,38.3,12.4,29.53,North,-999,-999.0,0.0,34,0.00,,,0.00,LWC V2.10 B1813,2014-01-22 17:17:00,
2014-01-22 10:22:00,38.6,12.7,29.53,North,-999,-999.0,0.0,34,0.00,,,0.00,LWC V2.10 B1813,2014-01-22 17:22:00,
2014-01-22 10:27:00,38.9,13.0,29.53,North,-999,-999.0,0.0,34,0.00,,,0.00,LWC V2.10 B1813,2014-01-22 17:27:00,
2014-01-22 10:32:00,39.4,13.4,29.53,North,-999,-999.0,0.0,34,0.00,,,0.00,LWC V2.10 B1813,2014-01-22 17:32:00,
2014-01-22 10:37:00,39.9,13.2,29.53,North,-999,-999.0,0.0,33,0.00,,,0.00,LWC V2.10 B1813,2014-01-22 17:37:00,
2014-01-22 10:42:00,40.4,13.6,29.53,North,-999,-999.0,0.0,33,0.00,,,0.00,LWC V2.10 B1813,2014-01-22 17:42:00,
2014-01-22 10:47:00,40.8,14.0,29.53,North,-999,-999.0,0.0,33,0.00,,,0.00,LWC V2.10 B1813,2014-01-22 17:47:00,
2014-01-22 10:52:00,41.0,14.1,29.53,North,-999,-999.0,0.0,33,0.00,,,0.00,LWC V2.10 B1813,2014-01-22 17:52:00,
2014-01-22 10:57:00,41.1,14.2,29.53,North,-999,-999.0,0.0,33,0.00,,,0.00,LWC V2.10 B1813,2014-01-22 17:57:00,
2014-01-22 11:02:00,41.3,14.4,29.53,North,-999,-999.0,0.0,33,0.00,,,0.00,LWC V2.10 B1813,2014-01-22 18:02:00,
2014-01-22 11:07:00,41.6,14.0,29.53,North,-999,-999.0,0.0,32,0.00,,,0.00,LWC V2.10 B1813,2014-01-22 18:07:00,
2014-01-22 11:12:00,41.9,14.2,29.53,North,-999,-999.0,0.0,32,0.00,,,0.00,LWC V2.10 B1813,2014-01-22 18:12:00,
2014-01-22 11:17:00,42.3,13.8,29.53,North,-999,-999.0,0.0,31,0.00,,,0.00,LWC V2.10 B1813,2014-01-22 18:17:00,
2014-01-22 11:22:00,42.7,13.5,29.53,North,-999,-999.0,0.0,30,0.00,,,0.00,LWC V2.10 B1813,2014-01-22 18:22:00,
2014-01-22 11:27:00,43.2,13.1,29.53,North,-999,-999.0,0.0,29,0.00,,,0.00,LWC V2.10 B1813,2014-01-22 18:27:00,
2014-01-22 11:32:00,43.4,13.3,29.53,North,-999,-999.0,0.0,29,0.00,,,0.00,LWC V2.10 B1813,2014-01-22 18:32:00,
2014-01-22 11:37:00,43.9,12.9,29.53,North,-999,-999.0,0.0,28,0.00,,,0.00,LWC V2.10 B1813,2014-01-22 18:37:00,
2014-01-22 11:42:00,44.3,13.3,29.53,North,-999,-999.0,0.0,28,0.00,,,0.00,LWC V2.10 B1813,2014-01-22 18:42:00,
2014-01-22 11:47:00,44.5,12.6,29.53,North,-999,-999.0,0.0,27,0.00,,,0.00,LWC V2.10 B1813,2014-01-22 18:47:00,
2014-01-22 11:52:00,44.7,13.6,29.53,North,-999,-999.0,0.0,28,0.00,,,0.00,LWC V2.10 B1813,2014-01-22 18:52:00,
2014-01-22 11:57:00,44.7,12.8,29.53,North,-999,-999.0,0.0,27,0.00,,,0.00,LWC V2.10 B1813,2014-01-22 18:57:00,
2014-01-22 12:02:00,44.8,12.9,29.53,North,-999,-999.0,0.0,27,0.00,,,0.00,LWC V2.10 B1813,2014-01-22 19:02:00,
2014-01-22 12:07:00,45.0,13.1,29.53,North,-999,-999.0,0.0,27,0.00,,,0.00,LWC V2.10 B1813,2014-01-22 19:07:00,
2014-01-22 12:12:00,45.2,13.2,29.53,North,-999,-999.0,0.0,27,0.00,,,0.00,LWC V2.10 B1813,2014-01-22 19:12:00,
2014-01-22 12:17:00,45.5,13.5,29.53,North,-999,-999.0,0.0,27,0.00,,,0.00,LWC V2.10 B1813,2014-01-22 19:17:00,
2014-01-22 12:22:00,45.8,13.7,29.53,North,-999,-999.0,0.0,27,0.00,,,0.00,LWC V2.10 B1813,2014-01-22 19:22:00,
2014-01-22 12:27:00,45.9,13.8,29.53,North,-999,-999.0,0.0,27,0.00,,,0.00,LWC V2.10 B1813,2014-01-22 19:27:00,
2014-01-22 12:32:00,46.1,14.0,29.53,North,-999,-999.0,0.0,27,0.00,,,0.00,LWC V2.10 B1813,2014-01-22 19:32:00,
2014-01-22 12:37:00,46.2,14.1,29.53,North,-999,-999.0,0.0,27,0.00,,,0.00,LWC V2.10 B1813,2014-01-22 19:37:00,
2014-01-22 12:42:00,46.1,14.0,29.53,North,-999,-999.0,0.0,27,0.00,,,0.00,LWC V2.10 B1813,2014-01-22 19:42:00,
2014-01-22 12:47:00,46.0,13.9,29.53,North,-999,-999.0,0.0,27,0.00,,,0.00,LWC V2.10 B1813,2014-01-22 19:47:00,
2014-01-22 12:52:00,46.0,13.9,29.53,North,-999,-999.0,0.0,27,0.00,,,0.00,LWC V2.10 B1813,2014-01-22 19:52:00,
2014-01-22 12:57:00,46.2,14.1,29.53,North,-999,-999.0,0.0,27,0.00,,,0.00,LWC V2.10 B1813,2014-01-22 19:57:00,
2014-01-22 13:02:00,46.5,14.3,29.53,North,-999,-999.0,0.0,27,0.00,,,0.00,LWC V2.10 B1813,2014-01-22 20:02:00,
2014-01-22 13:07:00,46.8,14.6,29.53,North,-999,-999.0,0.0,27,0.00,,,0.00,LWC V2.10 B1813,2014-01-22 20:07:00,
2014-01-22 13:12:00,47.0,14.8,29.53,North,-999,-999.0,0.0,27,0.00,,,0.00,LWC V2.10 B1813,2014-01-22 20:12:00,
2014-01-22 13:17:00,47.1,14.9,29.53,North,-999,-999.0,0.0,27,0.00,,,0.00,LWC V2.10 B1813,2014-01-22 20:17:00,
2014-01-22 13:22:00,47.2,14.9,29.53,North,-999,-999.0,0.0,27,0.00,,,0.00,LWC V2.10 B1813,2014-01-22 20:22:00,
2014-01-22 13:27:00,47.0,14.8,29.53,North,-999,-999.0,0.0,27,0.00,,,0.00,LWC V2.10 B1813,2014-01-22 20:27:00,
2014-01-22 13:32:00,46.9,14.7,29.53,North,-999,-999.0,0.0,27,0.00,,,0.00,LWC V2.10 B1813,2014-01-22 20:32:00,
2014-01-22 13:37:00,46.9,14.7,29.53,North,-999,-999.0,0.0,27,0.00,,,0.00,LWC V2.10 B1813,2014-01-22 20:37:00,
2014-01-22 13:42:00,46.9,14.7,29.53,North,-999,-999.0,0.0,27,0.00,,,0.00,LWC V2.10 B1813,2014-01-22 20:42:00,
2014-01-22 13:47:00,47.0,14.8,29.53,North,-999,-999.0,0.0,27,0.00,,,0.00,LWC V2.10 B1813,2014-01-22 20:47:00,
2014-01-22 13:52:00,47.0,14.8,29.53,North,-999,-999.0,0.0,27,0.00,,,0.00,LWC V2.10 B1813,2014-01-22 20:52:00,
2014-01-22 13:57:00,47.2,14.1,29.53,North,-999,-999.0,0.0,26,0.00,,,0.00,LWC V2.10 B1813,2014-01-22 20:57:00,
2014-01-22 14:02:00,47.4,15.1,29.53,North,-999,-999.0,0.0,27,0.00,,,0.00,LWC V2.10 B1813,2014-01-22 21:02:00,
2014-01-22 14:07:00,47.5,15.2,29.53,North,-999,-999.0,0.0,27,0.00,,,0.00,LWC V2.10 B1813,2014-01-22 21:07:00,
2014-01-22 14:12:00,47.4,15.1,29.53,North,-999,-999.0,0.0,27,0.00,,,0.00,LWC V2.10 B1813,2014-01-22 21:12:00,
2014-01-22 14:17:00,47.3,15.0,29.53,North,-999,-999.0,0.0,27,0.00,,,0.00,LWC V2.10 B1813,2014-01-22 21:17:00,
2014-01-22 14:22:00,47.3,15.0,29.53,North,-999,-999.0,0.0,27,0.00,,,0.00,LWC V2.10 B1813,2014-01-22 21:22:00,
2014-01-22 14:27:00,47.5,15.2,29.53,North,-999,-999.0,0.0,27,0.00,,,0.00,LWC V2.10 B1813,2014-01-22 21:27:00,
2014-01-22 14:32:00,47.8,15.5,29.53,North,-999,-999.0,0.0,27,0.00,,,0.00,LWC V2.10 B1813,2014-01-22 21:32:00,
2014-01-22 14:37:00,47.9,15.5,29.53,North,-999,-999.0,0.0,27,0.00,,,0.00,LWC V2.10 B1813,2014-01-22 21:37:00,
2014-01-22 14:42:00,47.9,14.7,29.53,North,-999,-999.0,0.0,26,0.00,,,0.00,LWC V2.10 B1813,2014-01-22 21:42:00,
2014-01-22 14:47:00,47.9,14.7,29.53,North,-999,-999.0,0.0,26,0.00,,,0.00,LWC V2.10 B1813,2014-01-22 21:47:00,
2014-01-22 14:52:00,47.9,14.7,29.53,North,-999,-999.0,0.0,26,0.00,,,0.00,LWC V2.10 B1813,2014-01-22 21:52:00,
2014-01-22 14:57:00,47.8,14.6,29.53,North,-999,-999.0,0.0,26,0.00,,,0.00,LWC V2.10 B1813,2014-01-22 21:57:00,
2014-01-22 15:02:00,47.8,13.7,29.53,North,-999,-999.0,0.0,25,0.00,,,0.00,LWC V2.10 B1813,2014-01-22 22:02:00,
2014-01-22 15:07:00,47.9,14.7,29.53,North,-999,-999.0,0.0,26,0.00,,,0.00,LWC V2.10 B1813,2014-01-22 22:07:00,
2014-01-22 15:12:00,47.9,13.8,29.53,North,-999,-999.0,0.0,25,0.00,,,0.00,LWC V2.10 B1813,2014-01-22 22:12:00,
2014-01-22 15:17:00,47.9,13.8,29.53,North,-999,-999.0,0.0,25,0.00,,,0.00,LWC V2.10 B1813,2014-01-22 22:17:00,
2014-01-22 15:22:00,47.9,14.7,29.53,North,-999,-999.0,0.0,26,0.00,,,0.00,LWC V2.10 B1813,2014-01-22 22:22:00,
2014-01-22 15:27:00,47.9,14.7,29.53,North,-999,-999.0,0.0,26,0.00,,,0.00,LWC V2.10 B1813,2014-01-22 22:27:00,
2014-01-22 15:32:00,47.9,13.8,29.53,North,-999,-999.0,0.0,25,0.00,,,0.00,LWC V2.10 B1813,2014-01-22 22:32:00,
2014-01-22 15:37:00,48.0,14.8,29.53,North,-999,-999.0,0.0,26,0.00,,,0.00,LWC V2.10 B1813,2014-01-22 22:37:00,
2014-01-22 15:42:00,47.8,13.7,29.53,North,-999,-999.0,0.0,25,0.00,,,0.00,LWC V2.10 B1813,2014-01-22 22:42:00,
2014-01-22 15:47:00,47.8,14.6,29.53,North,-999,-999.0,0.0,26,0.00,,,0.00,LWC V2.10 B1813,2014-01-22 22:47:00,
2014-01-22 15:52:00,47.7,14.5,29.53,North,-999,-999.0,0.0,26,0.00,,,0.00,LWC V2.10 B1813,2014-01-22 22:52:00,
2014-01-22 15:57:00,47.7,14.5,29.53,North,-999,-999.0,0.0,26,0.00,,,0.00,LWC V2.10 B1813,2014-01-22 22:57:00,
2014-01-22 16:02:00,47.6,14.4,29.53,North,-999,-999.0,0.0,26,0.00,,,0.00,LWC V2.10 B1813,2014-01-22 23:02:00,
2014-01-22 16:07:00,47.5,14.3,29.53,North,-999,-999.0,0.0,26,0.00,,,0.00,LWC V2.10 B1813,2014-01-22 23:07:00,
2014-01-22 16:12:00,47.4,14.3,29.53,North,-999,-999.0,0.0,26,0.00,,,0.00,LWC V2.10 B1813,2014-01-22 23:12:00,
2014-01-22 16:17:00,47.4,15.1,29.53,North,-999,-999.0,0.0,27,0.00,,,0.00,LWC V2.10 B1813,2014-01-22 23:17:00,
2014-01-22 16:22:00,47.4,15.1,29.53,North,-999,-999.0,0.0,27,0.00,,,0.00,LWC V2.10 B1813,2014-01-22 23:22:00,
2014-01-22 16:27:00,47.3,15.0,29.53,North,-999,-999.0,0.0,27,0.00,,,0.00,LWC V2.10 B1813,2014-01-22 23:27:00,
2014-01-22 16:32:00,47.2,13.2,29.53,North,-999,-999.0,0.0,25,0.00,,,0.00,LWC V2.10 B1813,2014-01-22 23:32:00,
2014-01-22 16:37:00,47.1,14.0,29.53,North,-999,-999.0,0.0,26,0.00,,,0.00,LWC V2.10 B1813,2014-01-22 23:37:00,
2014-01-22 16:42:00,47.0,14.8,29.53,North,-999,-999.0,0.0,27,0.00,,,0.00,LWC V2.10 B1813,2014-01-22 23:42:00,
2014-01-22 16:47:00,46.9,14.7,29.53,North,-999,-999.0,0.0,27,0.00,,,0.00,LWC V2.10 B1813,2014-01-22 23:47:00,
2014-01-22 16:52:00,46.8,14.6,29.53,North,-999,-999.0,0.0,27,0.00,,,0.00,LWC V2.10 B1813,2014-01-22 23:52:00,
2014-01-22 16:57:00,46.7,14.5,29.53,North,-999,-999.0,0.0,27,0.00,,,0.00,LWC V2.10 B1813,2014-01-22 23:57:00,
2014-01-22 17:02:00,46.7,14.5,29.53,North,-999,-999.0,0.0,27,0.00,,,0.00,LWC V2.10 B1813,2014-01-23 00:02:00,
2014-01-22 17:07:00,46.6,14.4,29.53,North,-999,-999.0,0.0,27,0.00,,,0.00,LWC V2.10 B1813,2014-01-23 00:07:00,
2014-01-22 17:12:00,46.5,14.3,29.53,North,-999,-999.0,0.0,27,0.00,,,0.00,LWC V2.10 B1813,2014-01-23 00:12:00,
2014-01-22 17:17:00,46.5,14.3,29.53,North,-999,-999.0,0.0,27,0.00,,,0.00,LWC V2.10 B1813,2014-01-23 00:17:00,
2014-01-22 17:22:00,46.5,14.3,29.53,North,-999,-999.0,0.0,27,0.00,,,0.00,LWC V2.10 B1813,2014-01-23 00:22:00,
2014-01-22 17:27:00,46.3,14.2,29.53,North,-999,-999.0,0.0,27,0.00,,,0.00,LWC V2.10 B1813,2014-01-23 00:27:00,
2014-01-22 17:32:00,46.3,14.2,29.53,North,-999,-999.0,0.0,27,0.00,,,0.00,LWC V2.10 B1813,2014-01-23 00:32:00,
2014-01-22 17:37:00,46.1,14.0,29.53,North,-999,-999.0,0.0,27,0.00,,,0.00,LWC V2.10 B1813,2014-01-23 00:37:00,
2014-01-22 17:42:00,46.1,14.0,29.53,North,-999,-999.0,0.0,27,0.00,,,0.00,LWC V2.10 B1813,2014-01-23 00:42:00,
2014-01-22 17:47:00,46.0,13.1,29.53,North,-999,-999.0,0.0,26,0.00,,,0.00,LWC V2.10 B1813,2014-01-23 00:47:00,
2014-01-22 17:50:00,37.8,19.9,29.53,North,0,0.0,0.0,48,0.00,,,0.00,LWC V2.10 B1813,2014-01-23 00:50:00,
2014-01-22 17:52:00,46.0,13.9,29.53,North,-999,-999.0,0.0,27,0.00,,,0.00,LWC V2.10 B1813,2014-01-23 00:52:00,
2014-01-22 18:00:00,37.7,20.3,29.53,North,0,0.0,0.0,49,0.00,,,0.00,LWC V2.10 B1813,2014-01-23 01:00:00,
2014-01-22 18:10:00,37.6,19.7,29.53,North,0,0.0,0.0,48,0.00,,,0.00,LWC V2.10 B1813,2014-01-23 01:10:00,
2014-01-22 18:20:00,37.5,19.6,29.53,North,0,0.0,0.0,48,0.00,,,0.00,LWC V2.10 B1813,2014-01-23 01:20:00,
2014-01-22 18:30:00,37.4,20.0,29.53,North,0,0.0,0.0,49,0.00,,,0.00,LWC V2.10 B1813,2014-01-23 01:30:00,
2014-01-22 18:40:00,37.2,19.8,29.53,North,0,0.0,0.0,49,0.00,,,0.00,LWC V2.10 B1813,2014-01-23 01:40:00,
2014-01-22 18:50:00,37.1,19.7,29.53,North,0,0.0,0.0,49,0.00,,,0.00,LWC V2.10 B1813,2014-01-23 01:50:00,
2014-01-22 19:00:00,36.9,20.0,29.53,North,0,0.0,0.0,50,0.00,,,0.00,LWC V2.10 B1813,2014-01-23 02:00:00,
2014-01-22 19:16:00,44.4,14.2,29.53,North,-999,-999.0,0.0,29,0.00,,,0.00,LWC V2.10 B1813,2014-01-23 02:16:00,
2014-01-22 19:19:00,44.3,14.8,29.53,North,-999,-999.0,0.0,30,0.00,,,0.00,LWC V2.10 B1813,2014-01-23 02:19:00,
2014-01-22 19:22:00,44.3,15.6,29.53,North,-999,-999.0,0.0,31,0.00,,,0.00,LWC V2.10 B1813,2014-01-23 02:22:00,
2014-01-22 19:23:00,44.3,14.8,29.53,North,-999,-999.0,0.0,30,0.00,,,0.00,LWC V2.10 B1813,2014-01-23 02:23:00,
2014-01-22 19:28:00,44.0,14.6,29.53,North,-999,-999.0,0.0,30,0.00,,,0.00,LWC V2.10 B1813,2014-01-23 02:28:00,
2014-01-22 19:33:00,43.8,14.4,29.53,North,-999,-999.0,0.0,30,0.00,,,0.00,LWC V2.10 B1813,2014-01-23 02:33:00,
2014-01-22 19:38:00,43.7,14.3,29.53,North,-999,-999.0,0.0,30,0.00,,,0.00,LWC V2.10 B1813,2014-01-23 02:38:00,
2014-01-22 19:43:00,43.7,15.1,29.53,North,-999,-999.0,0.0,31,0.00,,,0.00,LWC V2.10 B1813,2014-01-23 02:43:00,
2014-01-22 19:48:00,43.5,14.9,29.53,North,-999,-999.0,0.0,31,0.00,,,0.00,LWC V2.10 B1813,2014-01-23 02:48:00,
2014-01-22 19:53:00,43.4,15.5,29.53,North,-999,-999.0,0.0,32,0.00,,,0.00,LWC V2.10 B1813,2014-01-23 02:53:00,
2014-01-22 19:58:00,43.1,15.3,29.53,North,-999,-999.0,0.0,32,0.00,,,0.00,LWC V2.10 B1813,2014-01-23 02:58:00,
2014-01-22 20:04:00,43.0,15.9,29.53,North,-999,-999.0,0.0,33,0.00,,,0.00,LWC V2.10 B1813,2014-01-23 03:04:00,
2014-01-22 20:09:00,42.8,15.7,29.53,North,-999,-999.0,0.0,33,0.00,,,0.00,LWC V2.10 B1813,2014-01-23 03:09:00,
2014-01-22 20:14:00,42.6,15.5,29.53,North,-999,-999.0,0.0,33,0.00,,,0.00,LWC V2.10 B1813,2014-01-23 03:14:00,
2014-01-22 20:19:00,42.5,15.4,29.53,North,-999,-999.0,0.0,33,0.00,,,0.00,LWC V2.10 B1813,2014-01-23 03:19:00,
2014-01-22 20:24:00,42.2,15.2,29.53,North,-999,-999.0,0.0,33,0.00,,,0.00,LWC V2.10 B1813,2014-01-23 03:24:00,
2014-01-22 20:29:00,42.0,15.0,29.53,North,-999,-999.0,0.0,33,0.00,,,0.00,LWC V2.10 B1813,2014-01-23 03:29:00,
2014-01-22 20:34:00,42.0,15.7,29.53,North,-999,-999.0,0.0,34,0.00,,,0.00,LWC V2.10 B1813,2014-01-23 03:34:00,
2014-01-22 20:39:00,41.8,14.8,29.53,North,-999,-999.0,0.0,33,0.00,,,0.00,LWC V2.10 B1813,2014-01-23 03:39:00,
2014-01-22 20:44:00,41.7,14.7,29.53,North,-999,-999.0,0.0,33,0.00,,,0.00,LWC V2.10 B1813,2014-01-23 03:44:00,
2014-01-22 20:49:00,41.6,14.7,29.53,North,-999,-999.0,0.0,33,0.00,,,0.00,LWC V2.10 B1813,2014-01-23 03:49:00,
2014-01-22 20:54:00,41.3,14.4,29.53,North,-999,-999.0,0.0,33,0.00,,,0.00,LWC V2.10 B1813,2014-01-23 03:54:00,
2014-01-22 20:59:00,41.3,15.1,29.53,North,-999,-999.0,0.0,34,0.00,,,0.00,LWC V2.10 B1813,2014-01-23 03:59:00,
2014-01-22 21:04:00,41.3,15.1,29.53,North,-999,-999.0,0.0,34,0.00,,,0.00,LWC V2.10 B1813,2014-01-23 04:04:00,
2014-01-22 21:09:00,41.1,14.9,29.53,North,-999,-999.0,0.0,34,0.00,,,0.00,LWC V2.10 B1813,2014-01-23 04:09:00,
2014-01-22 21:14:00,41.1,14.9,29.53,North,-999,-999.0,0.0,34,0.00,,,0.00,LWC V2.10 B1813,2014-01-23 04:14:00,
2014-01-22 21:19:00,41.0,14.8,29.53,North,-999,-999.0,0.0,34,0.00,,,0.00,LWC V2.10 B1813,2014-01-23 04:19:00,
2014-01-22 21:24:00,40.9,14.0,29.53,North,-999,-999.0,0.0,33,0.00,,,0.00,LWC V2.10 B1813,2014-01-23 04:24:00,
2014-01-22 21:29:00,40.8,14.0,29.53,North,-999,-999.0,0.0,33,0.00,,,0.00,LWC V2.10 B1813,2014-01-23 04:29:00,
2014-01-22 21:34:00,40.7,13.9,29.53,North,-999,-999.0,0.0,33,0.00,,,0.00,LWC V2.10 B1813,2014-01-23 04:34:00,
2014-01-22 21:39:00,40.8,14.0,29.53,North,-999,-999.0,0.0,33,0.00,,,0.00,LWC V2.10 B1813,2014-01-23 04:39:00,
2014-01-22 21:44:00,40.9,14.0,29.53,North,-999,-999.0,0.0,33,0.00,,,0.00,LWC V2.10 B1813,2014-01-23 04:44:00,
2014-01-22 21:49:00,40.8,14.0,29.53,North,-999,-999.0,0.0,33,0.00,,,0.00,LWC V2.10 B1813,2014-01-23 04:49:00,
2014-01-22 21:54:00,40.6,13.8,29.53,North,-999,-999.0,0.0,33,0.00,,,0.00,LWC V2.10 B1813,2014-01-23 04:54:00,
2014-01-22 21:59:00,40.5,13.7,29.53,North,-999,-999.0,0.0,33,0.00,,,0.00,LWC V2.10 B1813,2014-01-23 04:59:00,
2014-01-22 22:01:00,40.5,13.7,29.53,North,-999,-999.0,0.0,33,0.00,,,0.00,LWC V2.10 B1813,2014-01-23 05:01:00,
2014-01-22 22:06:00,40.4,13.6,29.53,North,-999,-999.0,0.0,33,0.00,,,0.00,LWC V2.10 B1813,2014-01-23 05:06:00,
2014-01-22 22:11:00,40.2,14.1,29.53,North,-999,-999.0,0.0,34,0.00,,,0.00,LWC V2.10 B1813,2014-01-23 05:11:00,
2014-01-22 22:16:00,40.0,13.9,29.53,North,-999,-999.0,0.0,34,0.00,,,0.00,LWC V2.10 B1813,2014-01-23 05:16:00,
2014-01-22 22:21:00,39.9,14.5,29.53,North,-999,-999.0,0.0,35,0.00,,,0.00,LWC V2.10 B1813,2014-01-23 05:21:00,
2014-01-22 22:26:00,39.8,13.7,29.53,North,-999,-999.0,0.0,34,0.00,,,0.00,LWC V2.10 B1813,2014-01-23 05:26:00,
2014-01-22 22:31:00,39.5,13.5,29.53,North,-999,-999.0,0.0,34,0.00,,,0.00,LWC V2.10 B1813,2014-01-23 05:31:00,
2014-01-22 22:36:00,39.4,14.1,29.53,North,-999,-999.0,0.0,35,0.00,,,0.00,LWC V2.10 B1813,2014-01-23 05:36:00,
2014-01-22 22:41:00,39.1,13.1,29.53,North,-999,-999.0,0.0,34,0.00,,,0.00,LWC V2.10 B1813,2014-01-23 05:41:00,
2014-01-22 22:46:00,38.9,13.0,29.53,North,-999,-999.0,0.0,34,0.00,,,0.00,LWC V2.10 B1813,2014-01-23 05:46:00,
2014-01-22 22:51:00,38.7,12.8,29.53,North,-999,-999.0,0.0,34,0.00,,,0.00,LWC V2.10 B1813,2014-01-23 05:51:00,
2014-01-22 22:56:00,38.6,12.7,29.53,North,-999,-999.0,0.0,34,0.00,,,0.00,LWC V2.10 B1813,2014-01-23 05:56:00,
2014-01-22 23:01:00,38.6,12.0,29.53,North,-999,-999.0,0.0,33,0.00,,,0.00,LWC V2.10 B1813,2014-01-23 06:01:00,
2014-01-22 23:06:00,38.7,12.1,29.53,North,-999,-999.0,0.0,33,0.00,,,0.00,LWC V2.10 B1813,2014-01-23 06:06:00,
2014-01-22 23:11:00,39.0,11.0,29.53,North,-999,-999.0,0.0,31,0.00,,,0.00,LWC V2.10 B1813,2014-01-23 06:11:00,
2014-01-22 23:16:00,39.5,10.7,29.53,North,-999,-999.0,0.0,30,0.00,,,0.00,LWC V2.10 B1813,2014-01-23 06:16:00,
2014-01-22 23:21:00,39.9,10.3,29.53,North,-999,-999.0,0.0,29,0.00,,,0.00,LWC V2.10 B1813,2014-01-23 06:21:00,
2014-01-22 23:26:00,40.0,10.3,29.53,North,-999,-999.0,0.0,29,0.00,,,0.00,LWC V2.10 B1813,2014-01-23 06:26:00,
2014-01-22 23:31:00,40.1,9.6,29.53,North,-999,-999.0,0.0,28,0.00,,,0.00,LWC V2.10 B1813,2014-01-23 06:31:00,
2014-01-22 23:36:00,40.2,9.7,29.53,North,-999,-999.0,0.0,28,0.00,,,0.00,LWC V2.10 B1813,2014-01-23 06:36:00,
2014-01-22 23:41:00,40.2,9.7,29.53,North,-999,-999.0,0.0,28,0.00,,,0.00,LWC V2.10 B1813,2014-01-23 06:41:00,
2014-01-22 23:46:00,40.2,10.5,29.53,North,-999,-999.0,0.0,29,0.00,,,0.00,LWC V2.10 B1813,2014-01-23 06:46:00,
2014-01-22 23:51:00,40.2,9.7,29.53,North,-999,-999.0,0.0,28,0.00,,,0.00,LWC V2.10 B1813,2014-01-23 06:51:00,
2014-01-22 23:56:00,40.0,10.3,29.53,North,-999,-999.0,0.0,29,0.00,,,0.00,LWC V2.10 B1813,2014-01-23 06:56:00,